Location: Bednik
(45.3500°N, 16.3833°E)
Time: 08:21:26
(UTC+00:00)

Cosmos 2297 Rocket - Pass Details

Date: 08 August 2020
Orbit: 838 x 845 km, 71.0° (Epoch: 27 September)

Event Time Altitude Azimuth Distance (km) Brightness Sun altitude
Exits shadow 22:34:31 11° 85° (E) 2,370 4.5 -28.6°
Drops below altitude 10° 22:35:25 10° 76° (ENE) 2,458 4.7 -28.6°
Sets 22:39:40 0° 46° (NE) 3,401 5.9 -28.7°
